Weather History for Ogden, UT

Change the Weather History Date:

Sunday, January 12, 2014

  Actual Average Record
Temperature  
Mean Temperature 34 °F -  
Max Temperature 37 °F 36 °F 60 °F (1953)
Min Temperature 30 °F 18 °F -12 °F (1963)
Degree Days  
Heating Degree Days 32    
Moisture  
Dew Point 25 °F    
Average Humidity 72    
Maximum Humidity 92    
Minimum Humidity 52    
Precipitation  
Precipitation 0.02 in - - ()
Sea Level Pressure  
Sea Level Pressure 30.07 in    
Wind  
Wind Speed 9 mph (SW)    
Max Wind Speed 21 mph    
Max Gust Speed 31 mph    
Visibility 10 miles    
Events Snow    
Averages and records for this station are not official NWS values.
T = Trace of Precipitation, MM = Missing Value Source: NWS Daily Summary

Daily Weather History Graph

Daily Weather History Graph

Search for Another Location

Airport:

Trip Planner

Search our weather history database for the weather conditions in past years. The results will help you decide how hot, cold, wet, or windy it might be!

Date:

Astronomy

Jan. 12, 2014 Rise Set
Actual Time 7:52 AM MST 5:20 PM MST
Civil Twilight 7:21 AM MST 5:51 PM MST
Nautical Twilight 6:47 AM MST 6:25 PM MST
Astronomical Twilight 6:14 AM MST 6:58 PM MST
Moon 2:51 PM MST (1/12) 4:54 AM MST (1/12)
Length of Visible Light 10h 29m
Length of Day
9h 28m
Waxing Gibbous, 90% of the Moon is Illuminated
Jan 12
Waxing Gibbous
Jan 15
Full
Jan 23
Last Quarter
Jan 30
New
Feb 6
First Quarter

Hourly Weather History & Observations

Time (MST) Temp. Windchill Dew Point Humidity Pressure Visibility Wind Dir Wind Speed Gust Speed Precip Events Conditions
12:00 AM 34.0 °F 25.0 °F 30.9 °F 89% 29.86 in 2.5 mi North 12.7 mph - 0.00 in Snow Light Snow
12:08 AM 34.0 °F 28.0 °F 30.9 °F 89% 29.86 in 8.0 mi North 6.9 mph - 0.00 in Snow Light Snow
12:26 AM 34.0 °F 28.8 °F 32.0 °F 92% 29.86 in 7.0 mi NE 5.8 mph - 0.01 in Snow Light Snow
12:53 AM 34.0 °F 31.0 °F 32.0 °F 92% 29.83 in 9.0 mi Variable 3.5 mph - 0.01 in Snow Light Snow
1:53 AM 36.0 °F 27.1 °F 30.0 °F 79% 29.85 in 9.0 mi SSW 13.8 mph - 0.00 in Snow Light Snow
2:34 AM 36.0 °F 30.3 °F 28.9 °F 76% 29.87 in 10.0 mi West 6.9 mph - 0.01 in   Overcast
2:53 AM 37.9 °F 27.6 °F 25.0 °F 60% 29.87 in 10.0 mi West 20.7 mph 31.1 mph 0.01 in   Overcast
3:20 AM 33.1 °F 22.6 °F 28.0 °F 82% 29.90 in 10.0 mi North 16.1 mph - 0.00 in   Overcast
3:32 AM 33.1 °F 27.7 °F 28.9 °F 85% 29.92 in 10.0 mi NNE 5.8 mph - 0.00 in   Overcast
3:43 AM 33.1 °F 28.7 °F 28.9 °F 85% 29.92 in 10.0 mi North 4.6 mph - 0.00 in   Overcast
3:53 AM 33.1 °F 30.0 °F 28.9 °F 85% 29.92 in 10.0 mi South 3.5 mph - 0.00 in   Overcast
4:04 AM 33.1 °F 28.7 °F 28.9 °F 85% 29.93 in 10.0 mi SSW 4.6 mph - N/A   Overcast
4:53 AM 33.1 °F 28.7 °F 28.9 °F 85% 29.93 in 10.0 mi SW 4.6 mph - N/A   Overcast
5:53 AM 33.1 °F 25.5 °F 27.0 °F 78% 29.93 in 10.0 mi SW 9.2 mph - 0.00 in   Mostly Cloudy
6:53 AM 33.1 °F 25.5 °F 21.0 °F 61% 29.97 in 10.0 mi West 9.2 mph - N/A   Overcast
7:53 AM 33.1 °F 23.9 °F 19.0 °F 56% 30.01 in 10.0 mi WNW 12.7 mph - N/A   Overcast
8:53 AM 33.1 °F 25.5 °F 19.0 °F 56% 30.05 in 10.0 mi West 9.2 mph - N/A   Mostly Cloudy
9:53 AM 34.0 °F 25.0 °F 19.9 °F 56% 30.08 in 10.0 mi West 12.7 mph - N/A   Mostly Cloudy
10:53 AM 35.1 °F 29.3 °F 19.9 °F 54% 30.12 in 10.0 mi West 6.9 mph 17.3 mph N/A   Overcast
11:53 AM 35.1 °F 28.6 °F 21.0 °F 57% 30.15 in 10.0 mi West 8.1 mph - N/A   Overcast
12:53 PM 35.1 °F 26.9 °F 19.9 °F 54% 30.16 in 10.0 mi WSW 11.5 mph - N/A   Overcast
1:53 PM 35.1 °F 26.4 °F 21.0 °F 57% 30.17 in 10.0 mi WSW 12.7 mph - N/A   Overcast
2:53 PM 35.1 °F 26.9 °F 19.0 °F 52% 30.19 in 10.0 mi West 11.5 mph - N/A   Overcast
3:53 PM 34.0 °F 27.2 °F 21.0 °F 59% 30.22 in 10.0 mi SSW 8.1 mph - N/A   Overcast
4:53 PM 34.0 °F 26.6 °F 21.0 °F 59% 30.26 in 10.0 mi South 9.2 mph - N/A   Overcast
5:53 PM 34.0 °F 26.0 °F 21.0 °F 59% 30.28 in 10.0 mi South 10.4 mph - N/A   Overcast
6:53 PM 34.0 °F 29.8 °F 21.9 °F 61% 30.30 in 10.0 mi SE 4.6 mph - N/A   Overcast
7:53 PM 32.0 °F 22.1 °F 25.0 °F 75% 30.32 in 10.0 mi SSE 13.8 mph - N/A   Overcast
8:53 PM 30.9 °F 22.2 °F 26.1 °F 82% 30.33 in 10.0 mi SSE 10.4 mph - N/A   Overcast
9:53 PM 32.0 °F 26.4 °F 25.0 °F 75% 30.35 in 10.0 mi SSE 5.8 mph - N/A   Overcast
10:53 PM 30.9 °F 22.8 °F 25.0 °F 79% 30.35 in 10.0 mi SSE 9.2 mph - N/A   Overcast
11:53 PM 30.9 °F 22.2 °F 24.1 °F 76% 30.37 in 10.0 mi SSE 10.4 mph - N/A   Overcast